map of OSL home
OSL - Airport
Location
City:  Oslo, Akershus, Norway
Name:Oslo Airport Gardermoen
ICAO:ENGM
IATA:OSL

Details
Type:Airport (Aerodrome, Airfield)
Use:Public/Civil, Military, International (customs port of entry)
Latitude:6011'38"N (60.193917)
Longitude:1106'01"E (11.100361)
Datum:WGS 1984
Elevation:681 ft (208 m)
Variation:3.77E (WMM2015v2 magnetic declination)
0.21 annual change
Runways:2
Longest:11811 × 148 ft (3600 × 45 m), paved

Time
Time Zone:UTC+1 (DST+2)
Local Time:

Weather
METAR:ENGM 041420Z 00000KT 1700 -SN BR SCT011 OVC013 M11/M12 Q1012 TEMPO 1200 SN VV005
TAF:ENGM 041100Z 0412/0512 01005KT 7000 -SN SCT003 BKN012
TEMPO 0413/0509 1400 SN BR VV003
BECMG 0505/0507 SCT005 BKN020

Related Locations
Nearby:
Farthest:CHT: 11254 mi / 18112 km
Waitangi [Tuuta], CIT, NZ

Find:

   beyond  
but within

Other Information
Maps:
NOTAMs:
Links:
Sources:

  
  • flag of Norway
  

Airport Diagram

Airport diagram for OSL

Larger airport diagram (OBSOLETE) from NGA

Sectional Chart

Flight Planning
at skyvector.com

Satellite Image

Google Maps Satellite view

 

Copyright © 2004-2019 Karl L. Swartz. All rights reserved.
The Great Circle Mapper name and logo are trademarks of the Great Circle Mapper.
All other trademarks mentioned herein belong to their respective owners.
Please see credits for attibutions and further copyright information.

  Follow gcmap on Facebook Follow gcmap on Twitter GCmap on LinkedIn

hCard Microformat

Geo Microformat